Other Public Products
Issued by NWS Grand Forks, ND

Home | Current Version | Previous Version | Graphics & Text | Print | Product List | Glossary On
Versions: 1 2 3 4 5 6 7 8 9 10 11 12 13 14 15 16 17 18 19 20 21 22 23 24 25 26 27 28 29 30 31 32 33 34 35 36 37 38 39 40 41 42 43 44 45 46 47 48 49 50
000
FPUS83 KFGF 250831
OPUFGF
PRAIRIE TO PINES WEATHER ROUNDUP
NATIONAL WEATHER SERVICE EASTERN NORTH DAKOTA/GRAND FORKS ND
200 AM CST SUN FEB 25 2018

 **SATELLITE DATA USED TO AUGMENT SKY COVER AT AUTOMATED STATIONS**
 *****  WEATHER ACROSS EASTERN NORTH DAKOTA  *****

CITY           SKY/WX    TMP DP  RH WIND       PRES   REMARKS
GRAND FORKS    CLOUDY    16  14  92 CALM      29.51F
GRND FORKS AFB CLOUDY    16  12  86 W6        29.51F WCI   7
GRND FORKS NWS   N/A     15  13  94 NW2       29.49F
BUXTON           N/A     16  15  98 W3          N/A
DEVILS LAKE    CLOUDY     9   7  92 W10       29.50F WCI  -5
FARGO          CLOUDY    16  13  88 W9        29.53S WCI   4
WAHPETON ARPT  CLOUDY    18  14  86 W16       29.55F WCI   3
$$

 *****  WEATHER ACROSS CENTRAL AND WESTERN NORTH DAKOTA  *****

CITY           SKY/WX    TMP DP  RH WIND       PRES   REMARKS
JAMESTOWN      FAIR       9   5  84 W13       29.53R WCI  -7
BISMARCK       MOCLDY    15   9  76 NW7       29.59S WCI   5
MINOT          FLURRIES  24  19  81 W14       29.52S WCI  12
MINOT AFB      MIX PCPN  21  18  87 W14         N/A  WCI   8
GARRISON         N/A     21  18  88 NW17      29.54S WCI   7
WILLISTON      CLOUDY    22  16  78 W12       29.61R WCI  10
DICKINSON      MOCLDY    18  15  88 W22       29.58S WCI   1
HETTINGER      FAIR      15  10  80 W21       29.64R WCI  -2
$$

 *****  OTHER OBSERVATIONS NORTHEAST NORTH DAKOTA  *****

CITY           SKY/WX    TMP DP  RH WIND       PRES   REMARKS
WALHALLA       FAIR      14  14 100 CALM      29.50F
LANGDON        CLOUDY    16  16 100 W10       29.46F WCI   3
CAVALIER         N/A     14  14 100 SW5       29.50F WCI   6
GRAFTON        CLOUDY    16  16 100 CALM      29.53F
CANDO          FAIR       1   1 100 W9        29.51F WCI -14
FORT TOTTEN    NOT AVBL
ROLLA          FAIR       5   3  92 SW5       29.46F WCI  -4
RUGBY          CLOUDY    16  12  86 W10       29.50S WCI   3
 ***** THE ABOVE OBSERVATIONS ARE NON NWS ARE NOT QUALITY
        CONTROLLED AND MAY MIS-REPORT RAIN FOR SNOW...
$$

 *****  OTHER OBSERVATIONS SOUTHEAST NORTH DAKOTA *****

CITY           SKY/WX    TMP DP  RH WIND       PRES   REMARKS
COOPERSTOWN    FAIR       1   0  92 W14       29.51S FOG     WCI -17
VALLEY CITY    FAIR       9   9 100 W16       29.53S WCI  -9
OAKES            N/A      3   1  92 W10       29.56F WCI -12
GWINNER          N/A      5   3  92 W13       29.55S WCI -12
SHEYENNE NWR     N/A     15  14  96 W10       29.95S WCI   2
BUFFALO          N/A      9   7  91 NW8         N/A  WCI  -3
WYNDMERE       NOT AVBL
 ***** THE ABOVE OBSERVATIONS ARE NON NWS ARE NOT QUALITY
       CONTROLLED AND MAY MIS-REPORT RAIN FOR SNOW...
$$

  *****  WEATHER ACROSS NORTHERN MINNESOTA  *****

CITY           SKY/WX    TMP DP  RH WIND       PRES   REMARKS
FLAG ISLAND    LGT SNOW  19  18  93 N10       29.44F WCI   8
WARROAD        LGT SNOW  19  16  86 N5        29.45F WCI  13
ROSEAU         FLURRIES  19  16  86 N5        29.46F WCI  13
HALLOCK        CLOUDY    18  16  93 W6        29.50F WCI   9
THF RVR FALLS  FLURRIES  17  15  92 N3        29.48F
HALSTAD        NOT AVBL
FOSSTON        CLOUDY    16  16 100 NW3       29.46F
BAUDETTE       LGT SNOW  20  18  92 N10       29.42F FOG     WCI   9
WASKISH        LGT SNOW  21  19  93 N3        29.39F
CROOKSTON      CLOUDY    16  14  93 NW10      29.51F FOG     WCI   3
$$
  *****  WEATHER ACROSS CENTRAL AND WEST MINNESOTA  *****

CITY           SKY/WX    TMP DP  RH WIND       PRES   REMARKS
BEMIDJI        CLOUDY    19  17  92 W8        29.41S WCI   8
PARK RAPIDS    CLOUDY    18  15  88 W10       29.42S WCI   6
WADENA         CLOUDY    18  16  93 W12       29.47R WCI   5
DETROIT LAKES  CLOUDY    19  18  93 W7        29.49R WCI  10
MOORHEAD       CLOUDY    16  12  86 CALM      29.53S
FERGUS FALLS   CLOUDY    12  12 100 W7        29.54S WCI   2
ELBOW LAKE     CLOUDY    14  13  94 NW8       29.54S WCI   3
MORRIS MN      CLOUDY    16  12  86 W9        29.54F WCI   4
STAPLES        CLOUDY    16  16 100 W12       29.46R WCI   3
WHEATON        FAIR      18  14  86 W9        29.57F WCI   6
$$
  *****  WEATHER ELSEWHERE ACROSS MINNESOTA  *****

CITY           SKY/WX    TMP DP  RH WIND       PRES   REMARKS
DULUTH         LGT SNOW  27  25  92 SE6       29.29F VSB 3/4 WCI  20
INTRNTL FALLS  LGT SNOW  23  22  96 N5        29.37F VSB 3/4 WCI  17
ELY            LGT SNOW  25  25 100 CALM      29.29F
CLOQUET        LGT SNOW  27  25  93 S3        29.32F
BRAINERD       CLOUDY    21  17  84 W9        29.42R WCI  11
HIBBING        LGT SNOW  22  21  96 NW5       29.32F FOG     WCI  16
ALEXANDRIA     CLOUDY    16  15  96 W17       29.50R FOG     WCI   0
SAINT CLOUD    CLOUDY    19  16  88 W16       29.48R FOG     WCI   4
MINNEAPOLIS    CLOUDY    18  16  92 W15       29.52R WCI   4
$$

  *****  WEATHER ACROSS SOUTH DAKOTA  *****

CITY           SKY/WX    TMP DP  RH WIND       PRES   REMARKS
SIOUX FALLS    FAIR      12   7  80 W13       29.69F WCI  -3
BROOKINGS      FAIR       9   6  88 W9        29.64R WCI  -4
WATERTOWN      FAIR       7   5  91 W14       29.58S WCI -10
HURON          FAIR       7   4  87 SW7       29.68R WCI  -5
SISSETON         N/A     15  11  83 W18G25    29.55F WCI  -2
ABERDEEN       FAIR       4   1  88 SW8       29.62S WCI  -9
MITCHELL       FAIR      15   8  73 W14       29.72S WCI   0
PIERRE         FAIR      19  10  68 W16       29.68R WCI   4
MOBRIDGE       FAIR      11   5  77 NW7       29.60S WCI   0
RAPID CITY     FAIR      10   1  67 CALM      29.71R
$$

  *****  SOME WEATHER IN NEARBY STATES *****

CITY           SKY/WX    TMP DP  RH WIND       PRES   REMARKS
GLASGOW MT     FAIR      11   7  84 W8        29.67R WCI  -1
GREAT FALLS MT FAIR      18   7  62 SW16      29.68S WCI   3
CHEYENNE WY    FAIR      20   5  52 NW7       29.78R WCI  11
SCOTTSBLUFF NE FAIR      26  14  60 NW8       29.82R WCI  18
OMAHA NE       FAIR      25  16  68 W7        29.87R WCI  17
DES MOINES IA  MOCLDY    31  24  75 W21G28    29.79R WCI  18
DAVENPORT IA   CLOUDY    33  27  78 W17G29    29.73R WCI  22
CHICAGO IL     CLOUDY    37  31  78 W26G39    29.58R
EAU CLAIRE WI  CLOUDY    26  22  84 W18G33    29.44R FOG     WCI  13
LA CROSSE WI   CLOUDY    26  20  77 W12G33    29.58R WCI  16
$$

  *****  SOME NATIONAL WEATHER *****

CITY           SKY/WX    TMP DP  RH WIND       PRES   REMARKS
LA GUARDIA NY  CLOUDY    43  38  82 NE9       30.16F
RALEIGH NC     FAIR      64  58  80 SW12      30.05F
ATLANTA GA     FAIR      66  61  84 SW12      30.05F
NEW ORLEANS LA FAIR      73  71  93 S8        30.02F
OKLAHOMA CITY  FAIR      30  28  92 S5        30.00F
ALBUQUERQUE NM FAIR      27  11  51 E7        29.98F WCI  19
SALT LAKE CITY CLOUDY    28  22  78 S5        30.05S WCI  23
LOS ANGELES CA FAIR      51  37  58 CALM      30.18F
BOISE ID       FAIR      22  18  85 W3        30.15R
SEATTLE WA     LGT RAIN  40  34  79 S12       30.07F
$$

*** WEATHER ACROSS MANITOBA...SASKATCHEWAN AND ONTARIO ***
                ***ONTARIO***

CITY           SKY/WX    TMP DP  RH WIND       PRES   REMARKS
GERALDTON      CLOUDY    19  18  93 NE6       29.59F WCI  11
THUNDER BAY    SNOW      27  27 100 E17       29.41F VSB 1/4 WCI  14
SIOUX LOOKOUT  LGT SNOW  21  18  86 SE6       29.46F VSB 3/4 WCI  14
TORONTO        LGT RAIN  34  30  86 E28G37    29.77F WCI  20
BIG TROUT LK   MOCLDY    16   7  67 SW5       29.58F WCI   9
PICKLE LAKE    NOT AVBL
DRYDEN         LGT SNOW  21  19  93 NE9       29.44F VSB 3/4 WCI  11
KENORA         LGT SNOW  19  16  86 N6        29.44F VSB 1   WCI  11
$$
                *** MANITOBA***

CITY           SKY/WX    TMP DP  RH WIND       PRES   REMARKS
BRANDON        FOG        3   0  85 W6        29.47F VSB 1/8 WCI  -8
DAUPHIN        MOCLDY    16  12  86 W13       29.46F WCI   2
ISLAND LAKE    CLOUDY    18  12  79 CALM      29.52F
PILOT MOUND      N/A     14  12  92 W9          N/A  WCI   2
THE PAS        FLURRIES  12   9  85 W2        29.48F
THOMPSON       FLURRIES  10   7  85 N5        29.50S WCI   2
WINNIPEG       FLURRIES  18  16  93 S8        29.51F WCI   7
LYNN LAKE      CLOUDY     3   0  85 N6        29.53R WCI  -8
CHURCHILL      PTCLDY     0  -6  78 NW7       29.60S WCI -13
GILLAM         CLOUDY     9   5  85 W2        29.54R
$$
                ***SASKATCHEWAN***

CITY           SKY/WX    TMP DP  RH WIND       PRES   REMARKS
ESTEVAN        MOCLDY    14   9  79 W10G17    29.53S WCI   1
KINDERSLEY     PTCLDY     5   1  85 S7        29.54F WCI  -7
LLOYDMINSTER   FLURRIES  10   7  85 S7        29.47F WCI   0
PRINCE ALBERT  FLURRIES  14   7  73 NW6       29.57S WCI   5
REGINA         CLOUDY    12  10  92 W14       29.54S WCI  -3
YORKTON        FLURRIES  19  16  86 NW9       29.47S WC



USA.gov is the U.S. government's official web portal to all federal, state and local government web resources and services.